Simultaneous Nadir Overpasses (SNOs) Predictions

Prediction of SNOs between LANDSAT-8 and NOAA-19 Satellite Orbit:

Table of predicted SNOs for the next 14.0 days since TLE Epoch: 2/24/2017
Index Date (LANDSAT-8) Time (LANDSAT-8) Lat,Lon (LANDSAT-8) SZA (LANDSAT-8 ) Date (NOAA-19) Time (NOAA-19) Lat,Lon (NOAA-19) SZA (NOAA-19 ) Distance(km) Time Diff (sec)
1 02/24/2017 13:25:50 75.80, -13.92 85.02 02/24/2017 13:24:44 75.81, -13.86 85.02 1.74 66
2 02/24/2017 14:15:18 -75.77, 153.62 95.03 02/24/2017 14:15:40 -75.75, 153.61 95.05 2.54 22
3 02/26/2017 18:59:34 -75.80, 82.65 95.81 02/26/2017 18:58:34 -75.83, 82.67 95.79 2.95 60
4 02/26/2017 19:49:01 75.74,-109.91 84.11 02/26/2017 19:49:37 75.75,-109.82 84.12 2.82 36
5 03/01/2017 00:33:16 75.81, 179.24 83.36 03/01/2017 00:32:31 75.81, 179.29 83.36 1.28 45
6 03/01/2017 01:22:45 -75.74, -13.34 96.74 03/01/2017 01:23:26 -75.75, -13.22 96.72 3.75 41
7 03/03/2017 06:07:00 -75.81, -84.20 97.50 03/03/2017 06:06:20 -75.84, -84.19 97.47 3.03 40
8 03/03/2017 06:56:26 75.79, 83.38 82.47 03/03/2017 06:57:24 75.76, 83.30 82.45 3.39 58
9 03/05/2017 11:40:42 75.81, 12.36 81.65 03/05/2017 11:40:18 75.84, 12.36 81.68 4.17 24
10 03/05/2017 12:30:10 -75.78, 179.93 98.40 03/05/2017 12:31:12 -75.76, 179.90 98.41 2.40 62
11 03/07/2017 17:14:25 -75.85, 109.06 99.18 03/07/2017 17:14:05 -75.82, 109.06 99.21 3.81 20
12 03/07/2017 18:03:55 75.63, -83.96 80.58 03/07/2017 18:05:06 75.58, -82.90 80.56 29.64 71
13 03/09/2017 22:48:07 75.84,-
